Seldovia, AK

2:33 PM AKST on February 24, 2017 (GMT -0900)
Seldovia

Weather History for PASO - November, 2012

Change the Weather History Date:

Friday, November 16, 2012

  Actual Average (PAHO) Record (PAHO)
Temperature  
Mean Temperature 30 °F -  
Max Temperature 33 °F 35 °F 53 °F (2014)
Min Temperature 21 °F 22 °F -3 °F (1945)
Degree Days  
Heating Degree Days 35    
Moisture  
Dew Point 21 °F    
Average Humidity 70    
Maximum Humidity 92    
Minimum Humidity 49    
Precipitation  
Precipitation 0.00 in - - ()
Sea Level Pressure  
Sea Level Pressure 29.57 in    
Wind  
Wind Speed 4 mph (North)    
Max Wind Speed 16 mph    
Max Gust Speed 22 mph    
Visibility 10 miles    
Events      
Averages and records for this station are not official NWS values.
T = Trace of Precipitation, MM = Missing Value Source: NWS Daily Summary

Daily Weather History Graph

Daily Weather History Graph

Search for Another Location

Airport or City:

Trip Planner

Search our weather history database for the weather conditions in past years. The results will help you decide how hot, cold, wet, or windy it might be!

Date:

Astronomy

Nov. 16, 2012 Rise Set
Actual Time 9:05 AM AKST 4:37 PM AKST
Civil Twilight 8:17 AM AKST 5:25 PM AKST
Nautical Twilight 7:25 AM AKST 6:16 PM AKST
Astronomical Twilight 6:37 AM AKST 7:04 PM AKST
Moon 12:22 PM AKST (11/16) 7:39 PM AKST (11/16)
Length of Visible Light 9h 08m
Length of Day
7h 31m
Waxing Crescent, 13% of the Moon is Illuminated
Nov 16
Waxing Crescent
Nov 20
First Quarter
Nov 28
Full
Dec 6
Last Quarter
Dec 12
New

Hourly Weather History & Observations

Time (AKST) Temp. Windchill Dew Point Humidity Pressure Visibility Wind Dir Wind Speed Gust Speed Precip Events Conditions
12:53 AM 30.9 °F - 28.0 °F 89% 29.57 in 10.0 mi Calm Calm - N/A   Clear
1:53 AM 30.0 °F - 27.0 °F 88% 29.58 in 10.0 mi Calm Calm - N/A   Clear
3:53 AM 28.9 °F - 27.0 °F 92% 29.61 in 10.0 mi Calm Calm - N/A   Clear
4:53 AM 28.0 °F - 26.1 °F 92% 29.61 in 10.0 mi Calm Calm - N/A   Clear
5:53 AM 28.0 °F 24.2 °F 25.0 °F 88% 29.63 in 10.0 mi North 3.5 mph - N/A   Clear
6:53 AM 30.0 °F - 27.0 °F 88% 29.63 in 10.0 mi Calm Calm - N/A   Clear
7:53 AM 30.0 °F 22.4 °F 27.0 °F 88% 29.62 in 10.0 mi North 8.1 mph - N/A   Clear
8:53 AM 30.9 °F 22.8 °F 25.0 °F 79% 29.63 in 10.0 mi North 9.2 mph - N/A   Clear
9:53 AM 30.0 °F - 25.0 °F 82% 29.63 in 10.0 mi Calm Calm - N/A   Clear
10:53 AM 30.0 °F 23.2 °F 24.1 °F 79% 29.62 in 10.0 mi NNE 6.9 mph - N/A   Clear
11:53 AM 32.0 °F 27.5 °F 23.0 °F 69% 29.63 in 10.0 mi NE 4.6 mph - N/A   Clear
12:53 PM 33.1 °F 26.1 °F 21.0 °F 61% 29.61 in 10.0 mi North 8.1 mph - N/A   Clear
1:53 PM 32.0 °F 25.6 °F 21.0 °F 64% 29.59 in 10.0 mi North 6.9 mph - N/A   Clear
2:53 PM 32.0 °F 23.6 °F 16.0 °F 52% 29.58 in 10.0 mi North 10.4 mph 18.4 mph N/A   Clear
3:53 PM 30.9 °F 24.3 °F 16.0 °F 54% 29.55 in 10.0 mi North 6.9 mph - N/A   Clear
4:53 PM 30.9 °F 22.2 °F 16.0 °F 54% 29.55 in 10.0 mi North 10.4 mph 16.1 mph N/A   Clear
5:53 PM 30.9 °F 21.7 °F 16.0 °F 54% 29.54 in 10.0 mi North 11.5 mph - N/A   Clear
6:53 PM 30.0 °F 18.7 °F 12.9 °F 49% 29.53 in 10.0 mi North 16.1 mph 21.9 mph N/A   Clear
7:53 PM 28.9 °F 21.1 °F 12.0 °F 49% 29.52 in 10.0 mi North 8.1 mph 17.3 mph N/A   Clear
8:53 PM 28.0 °F 20.8 °F 12.9 °F 53% 29.50 in 10.0 mi NNE 6.9 mph - N/A   Clear
9:53 PM 28.0 °F 20.8 °F 14.0 °F 56% 29.48 in 10.0 mi North 6.9 mph - N/A   Clear
10:53 PM 27.0 °F 18.0 °F 14.0 °F 58% 29.46 in 10.0 mi NNE 9.2 mph - N/A   Clear
11:53 PM 21.9 °F - 16.0 °F 78% 29.45 in 10.0 mi Calm Calm - N/A   Clear